Regional Weather Roundup
Issued by NWS Sterling, VA

Home | Current Version | Previous Version | Graphics & Text | Print | Product List | Glossary On
Versions: 1 2 3 4 5 6 7 8 9 10 11 12 13 14 15 16 17 18 19 20 21 22 23 24 25 26 27
000
ASUS41 KLWX 201710
RWRLWX

REGIONAL WEATHER ROUNDUP
NATIONAL WEATHER SERVICE BALTIMORE MD/WASHINGTON DC
100 PM EDT SUN APR 20 2014

Note: "FAIR" indicates few or no clouds below 12,000 feet
with no significant weather and/or obstructions to visibility.
 TC=TEMPERATURE CELSIUS

 * =Non NWS site. Station does not report precipitation (e.g. rain,
    snow, etc.), thunder, or fog.

DCZ001-MDZ009-015-VAZ040>042-051-053>054-201800-
WASHINGTON METRO

CITY           SKY/WX    TMP DP  RH WIND       PRES   REMARKS
WASHINGTON NAT PTSUNNY   62  37  39 NE12      30.42F
DULLES         PTSUNNY   58  37  45 VRB6      30.41F
ANDREWS AFB    PTSUNNY   58  36  43 E14       30.40F
FT BELVOIR     MOSUNNY   61  35  37 E8        30.40F
QUANTICO       MOSUNNY   60  39  45 NE15      30.40F
COLLEGE PARK*  PTSUNNY   59  36  41 E12       30.42F
LEESBURG*      PTSUNNY   59  37  44 E12       30.42F
GAITHERSBURG*  SUNNY     55  34  44 E8G16     30.44F

$$

MDZ006>007-011-014-201800-
BALTIMORE METRO

CITY           SKY/WX    TMP DP  RH WIND       PRES   REMARKS
BWI AIRPORT    PTSUNNY   55  34  45 E9        30.43F
MD SCIENCE CTR   N/A     55  34  45 MISG      30.45F
MARTIN STATE   PTSUNNY   55  36  47 NE8       30.46F
ANNAPOLIS      PTSUNNY   56  35  45 VRB6      30.42F
FORT MEADE*    PTSUNNY   55  32  41 E9        30.44F

$$

MDZ012-015-019>023-201800-
MARYLAND EASTERN SHORE

CITY           SKY/WX    TMP DP  RH WIND       PRES   REMARKS
OCEAN CITY     MOSUNNY   53  42  66 NE16G26   30.40S
SALISBURY      SUNNY     59  38  45 E22G29    30.39F
BAY BRIDGE AP* PTSUNNY   59  34  38 E13       30.42F
EASTON*        PTSUNNY   59  37  44 E15G23    30.45F

$$

MDZ017>025-201800-
SOUTHERN MARYLAND

CITY           SKY/WX    TMP DP  RH WIND       PRES   REMARKS
PATUXENT RIVER PTSUNNY   62  34  35 E14G23    30.38F
ST INIGOES     SUNNY     59  37  44 E16       30.37F
LEONARDTOWN*   SUNNY     59  34  38 NE8G17    30.40F

$$

MDZ003>005-201800-
NORTH CENTRAL MARYLAND

CITY           SKY/WX    TMP DP  RH WIND       PRES   REMARKS
FREDERICK*     SUNNY     61  39  44 S7        30.44F
HAGERSTOWN APT SUNNY     60  31  33 VRB6      30.39F
WESTMINSTER*   SUNNY     57  34  41 E5        30.42F

$$

MDZ501>502-201800-
WESTERN MARYLAND

CITY           SKY/WX    TMP DP  RH WIND       PRES   REMARKS
OAKLAND*       SUNNY     54  10  17 SE14      30.35S
CUMBERLAND*    SUNNY     63  30  29 SW7       30.40F

$$

VAZ025>031-201800-
SHENANDOAH VALLEY

CITY           SKY/WX    TMP DP  RH WIND       PRES   REMARKS
WINCHESTER*    MOSUNNY   61  32  33 E7        30.39F
STAUNTON*      MOSUNNY   60  28  28 CALM      30.38F

$$

WVZ021-048>050-054>055-201800-
EASTERN WEST VIRGINIA PANHANDLE

CITY           SKY/WX    TMP DP  RH WIND       PRES   REMARKS
MARTINSBURG    SUNNY     62  30  29 E7        30.40F
PETERSBURG*    SUNNY     67  38  34 CALM      30.35F

$$

VAZ036>039-050-201800-
CENTRAL FOOTHILLS

CITY           SKY/WX    TMP DP  RH WIND       PRES   REMARKS
CHARLOTTESVILL SUNNY     62  34  35 NE8G20    30.36F
CULPEPER*      MOSUNNY   64  32  29 NE9G16    30.39F

$$

VAZ055>057-201800-
NORTH AND CENTRAL PIEDMONT

CITY           SKY/WX    TMP DP  RH WIND       PRES   REMARKS
FREDERICKSBRG* SUNNY     64  37  36 NE10G20   30.37F
STAFFORD*      SUNNY     63  40  43 E9G16     30.42F

$$

NCZ024-NYZ072-PAZ021-071-VAZ022-071-201800-
OTHER REGIONAL OBSERVATIONS

CITY           SKY/WX    TMP DP  RH WIND       PRES   REMARKS
NEW YORK CITY  SUNNY     57  22  25 CALM      30.49F
PHILADELPHIA   PTSUNNY   57  29  34 NE9       30.47F
PITTSBURGH     PTSUNNY   64  25  22 S12       30.30F
ROANOKE        MOSUNNY   63  31  30 E5G20     30.33F
RICHMOND       PTSUNNY   65  36  34 NE16G26   30.33F
RALEIGH        PTSUNNY   63  42  46 NE16G25   30.24F

$$

ANZ530>537-201800-
MARINE OBSERVATIONS

STATION/POSITION TIME  TEMP    WIND        PRES
                       AIR SEA DIR/SP/G
                 (UTC) (F)     (DEG/KT/KT) (MB)
THOMAS PT LIGHT  1700   54 53   90/ 11/ 13 1030.4F
BALT KEY BRIDGE  1700   53      50/  8/  9 1030.9F
COVE POINT       1700   55      40/ 14/ 15 1029.0S
LEWISETTA        1700   56 54   50/ 10/ 15 1028.3S
SOLOMONS ISLAND  1700      53                N/A
PINEY POINT      1700          100/ 15/ 17   N/A

$$




USA.gov is the U.S. government's official web portal to all federal, state and local government web resources and services.